Cloud_Cover
100 69 50 7 31 5 0 0 0 0 0 0 5 0 5 3 0 0 0 0 0 0
100 100 100 100 49 7 31 0 0 0 0 0 3 5 5 0 0 0 0 0 0 0
100 100 100 100 100 99 29 0 0 0 0 3 5 5 5 0 0 0 0 0 2 5
100 100 95 97 95 7 4 0 0 0 5 5 5 5 5 1 0 0 0 0 0 4
100 100 100 100 100 90 5 5 5 5 5 5 3 5 1 4 36 0 0 0 2 5
100 100 100 100 100 100 96 5 6 10 15 5 5 5 5 0 0 0 0 0 0 2
100 100 100 100 92 100 100 90 14 36 48 5 6 7 5 0 0 0 0 0 2 5
100 100 100 100 90 99 100 82 100 85 100 5 56 32 7 2 0 0 0 1 5 5
65 100 100 99 100 100 100 19 15 100 100 99 93 95 5 3 2 0 0 5 5 1
100 100 100 99 95 100 100 66 54 100 100 100 100 40 3 0 0 0 0 0 0 5
100 100 100 100 100 100 100 100 100 100 100 100 99 11 0 0 0 5 5 3 3 1
100 100 100 100 100 100 100 95 100 100 100 100 83 1 5 14 64 100 81 5 0 2
100 100 100 100 100 100 54 77 100 100 100 100 2 5 35 80 8 97 53 0 0 0
100 100 94 100 100 95 5 80 100 100 100 100 5 21 99 100 59 57 4 0 0 1